| time (UTC) | temp C | wind direction | speed KPH | gust KPH | rain 1hr cm | rain 24hr cm | rain mn cm | humidity % | barometer mb |
| 20260507140604 | 10 | 126 | 8.0 | 19.3 | 0.00 | 0.00 | 0.00 | 3 | 1013.4 |
| 20260507140106 | 10 | 147 | 9.7 | 24.1 | 0.00 | 0.00 | 0.00 | 3 | 1013.4 |
| 20260507130604 | 10 | 136 | 11.3 | 19.3 | 0.00 | 0.00 | 0.00 | 3 | 1013.4 |
| 20260507130106 | 10 | 140 | 8.0 | 25.7 | 0.00 | 0.00 | 0.00 | 3 | 1013.5 |
| 20260507120604 | 10 | 126 | 4.8 | 19.3 | 0.00 | 0.00 | 0.00 | 3 | 1013.5 |
| 20260507120106 | 10 | 122 | 9.7 | 20.9 | 0.00 | 0.00 | 0.00 | 3 | 1013.6 |
| 20260507110604 | 10 | 184 | 6.4 | 12.9 | 0.00 | 0.00 | 0.00 | 3 | 1013.7 |
| 20260507110105 | 10 | 155 | 8.0 | 19.3 | 0.00 | 0.00 | 0.00 | 3 | 1013.8 |
| 20260507100604 | 10 | 151 | 8.0 | 19.3 | 0.00 | 0.00 | 0.00 | 3 | 1013.8 |
| 20260507100106 | 10 | 127 | 9.7 | 22.5 | 0.00 | 0.00 | 0.00 | 3 | 1013.9 |
| 20260507090602 | 10 | 133 | 9.7 | 19.3 | 0.00 | 0.00 | 0.00 | 3 | 1013.8 |
| 20260507080603 | 10 | 140 | 9.7 | 16.1 | 0.00 | 0.00 | 0.00 | 3 | 1013.9 |
| 20260507080110 | 10 | 156 | 4.8 | 14.5 | 0.00 | 0.00 | 0.00 | 3 | 1013.8 |
| 20260507070603 | 10 | 116 | 3.2 | 11.3 | 0.00 | 0.00 | 0.00 | 3 | 1013.3 |
| 20260507060603 | 10 | 136 | 3.2 | 8.0 | 0.00 | 0.00 | 0.00 | 3 | 1013.4 |
| 20260507060105 | 10 | 136 | 1.6 | 4.8 | 0.00 | 0.00 | 0.00 | 3 | 1013.3 |
| 20260507050603 | 10 | 186 | 3.2 | 4.8 | 0.00 | 0.00 | 0.00 | 3 | 1013.1 |
| 20260507050104 | 10 | 143 | 1.6 | 11.3 | 0.00 | 0.00 | 0.00 | 3 | 1013.0 |
| 20260507040603 | 10 | 143 | 4.8 | 8.0 | 0.00 | 0.00 | 0.00 | 3 | 1013.6 |
| 20260507030603 | 10 | 188 | 3.2 | 4.8 | 0.00 | 0.00 | 0.00 | 3 | 1014.2 |
| 20260507030104 | 10 | 188 | 3.2 | 8.0 | 0.00 | 0.00 | 0.00 | 3 | 1014.2 |
| 20260507010604 | 10 | 191 | 3.2 | 4.8 | 0.00 | 0.00 | 0.00 | 3 | 1014.2 |
| 20260507010105 | 10 | 191 | 1.6 | 4.8 | 0.00 | 0.00 | 0.00 | 3 | 1014.2 |
| 20260507000604 | 10 | 191 | 1.6 | 4.8 | 0.00 | 0.00 | 0.00 | 3 | 1014.4 |
| 20260507000105 | 10 | 191 | 1.6 | 4.8 | 0.00 | 0.00 | 0.00 | 3 | 1014.4 |
| 20260506230105 | 10 | 192 | 0.0 | 1.6 | 0.00 | 0.00 | 0.00 | 3 | 1014.5 |
| 20260506220604 | 10 | 192 | 0.0 | 0.0 | 0.00 | 0.00 | 0.00 | 3 | 1014.3 |
| 20260506220105 | 10 | 192 | 0.0 | 4.8 | 0.00 | 0.00 | 0.00 | 3 | 1014.3 |
| 20260506210604 | 10 | 192 | 0.0 | 0.0 | 0.00 | 0.00 | 0.00 | 3 | 1014.2 |
| 20260506200603 | 10 | 192 | 0.0 | 1.6 | 0.00 | 0.00 | 0.00 | 3 | 1013.9 |
| 20260506200105 | 10 | 192 | 0.0 | 4.8 | 0.00 | 0.00 | 0.00 | 3 | 1013.7 |
| 20260506190604 | 10 | 114 | 1.6 | 3.2 | 0.00 | 0.00 | 0.00 | 3 | 1013.4 |
| 20260506180604 | 10 | 115 | 1.6 | 4.8 | 0.00 | 0.00 | 0.00 | 3 | 1013.0 |
| 20260506180106 | 10 | 115 | 1.6 | 4.8 | 0.00 | 0.00 | 0.00 | 3 | 1013.0 |
| 20260506170112 | 10 | 69 | 1.6 | 8.0 | 0.00 | 0.00 | 0.00 | 3 | 1012.7 |
| 20260506160604 | 10 | 63 | 1.6 | 4.8 | 0.00 | 0.00 | 0.00 | 3 | 1012.7 |
| 20260506160105 | 10 | 60 | 1.6 | 4.8 | 0.00 | 0.00 | 0.00 | 3 | 1012.7 |
| 20260506150604 | 10 | 63 | 3.2 | 8.0 | 0.00 | 0.00 | 0.00 | 3 | 1012.8 |
| 20260506150105 | 10 | 96 | 4.8 | 16.1 | 0.00 | 0.00 | 0.00 | 3 | 1012.8 |